SCP
0 0 0 0 0 0 0 0 -0 -0 -0 -0 -0 -0 -0 -0 -0 -0 0 0 0 0 0 0 0 0 0 0 0 0 0 0 0 0 0 0 0 0 0 0 0 0 0 0 0 0 0 0 0 1 1 2 1 1
0 0 0 0 0 0 0 0 0 0 -0 -0 -0 -0 -0 -0 -0 -0 0 0 0 0 0 0 0 0 0 0 0 0 0 0 0 0 0 0 0 0 0 0 1 0 0 0 0 1 1 1 3 2 1 1 1 1
0 0 0 0 0 0 0 0 0 0 0 -0 -0 -0 -0 -0 -0 -0 -0 0 0 0 0 0 0 0 -0 -0 -0 0 0 0 0 0 0 0 0 0 0 0 0 0 0 0 0 0 0 0 0 1 1 1 0 0
0 0 0 0 0 0 0 0 0 0 0 -0 -0 -0 -0 -0 -0 -0 0 -0 0 0 0 0 0 0 -0 -0 0 -0 0 -0 0 0 0 0 0 0 0 0 0 0 0 0 0 0 0 0 0 0 0 0 0 0
0 0 0 0 0 0 0 0 0 0 0 0 -0 -0 -0 -0 -0 0 -0 0 0 0 -0 0 -0 0 0 0 0 0 0 -0 -0 0 0 0 0 0 0 0 0 0 0 0 0 1 0 0 0 0 0 0 0 0
0 0 0 0 0 0 0 0 0 0 0 0 0 -0 -0 -0 -0 0 0 0 0 0 -0 -0 0 0 0 0 0 0 0 0 0 0 0 0 0 0 0 0 0 0 0 0 0 0 0 0 0 0 0 0 0 0
0 0 0 0 0 0 0 0 0 0 0 0 0 0 0 -0 0 0 0 0 0 0 0 -0 0 0 0 0 0 -0 0 0 0 0 0 0 0 0 0 0 0 0 0 0 0 0 0 -0 0 -0 0 0 0 0
0 0 0 0 0 0 0 0 0 0 0 0 0 0 0 -0 -0 -0 0 0 0 0 -0 -0 0 0 0 0 0 -0 -0 0 0 0 0 0 0 0 0 0 0 0 0 -0 -0 -0 0 0 0 0 0 0 0 0
0 -0 0 0 0 0 0 0 0 0 0 0 0 0 -0 -0 0 0 0 0 0 0 -0 -0 -0 0 0 0 0 0 0 0 0 0 0 0 0 0 0 0 0 0 0 0 0 0 0 0 0 1 0 0 0 0
0 -0 -0 0 0 0 0 0 0 -0 -0 0 0 0 0 0 0 0 0 0 0 0 -0 -0 0 0 0 0 0 0 0 0 0 0 0 0 0 0 0 0 0 0 0 0 0 0 0 0 0 0 0 0 0 0
0 -0 0 0 0 0 0 0 0 -0 0 0 0 0 0 0 -0 0 0 0 0 0 0 -0 -0 -0 0 0 0 0 0 0 0 0 -0 0 0 0 0 0 0 0 0 0 0 0 0 0 0 0 0 0 0 0
-0 -0 0 0 0 0 0 0 0 0 0 0 0 0 0 0 0 0 0 0 0 0 0 -0 0 0 -0 0 0 0 0 0 0 0 0 -0 0 0 0 0 0 0 0 0 0 0 0 0 0 0 0 0 0 0
-0 -0 0 0 0 0 0 0 0 0 0 0 0 0 0 0 0 0 0 0 -0 -0 0 0 -0 0 -0 -0 -0 -0 -0 0 0 -0 0 -0 -0 -0 -0 -0 0 0 0 0 0 0 0 0 0 0 0 0 0 0
-0 -0 0 0 0 0 0 0 0 0 0 0 0 0 0 0 0 0 0 0 0 0 -0 -0 -0 -0 -0 -0 -0 0 0 0 0 0 -0 -0 -0 -0 -0 0 0 0 0 0 0 -0 0 0 0 0 0 0 0 0
0 0 0 0 0 0 0 0 0 0 0 0 0 0 0 0 0 0 0 0 -0 0 -0 -0 -0 -0 -0 -0 -0 -0 -0 -0 -0 -0 0 0 0 -0 -0 -0 -0 -0 0 0 -0 0 0 0 0 0 0 0 0 0
0 0 0 0 0 0 0 0 0 0 0 0 0 0 0 0 -0 -0 0 0 0 0 -0 0 0 0 -0 -0 -0 0 0 -0 -0 -0 -0 -0 0 0 0 -0 0 0 0 0 0 0 0 0 0 0 0 0 0 0
0 0 0 0 0 0 0 0 0 0 0 0 0 0 0 -0 0 0 0 0 0 0 -0 0 0 0 0 0 0 -0 0 -0 0 -0 -0 -0 0 -0 -0 0 0 0 0 0 0 0 0 0 0 0 0 0 0 0
0 0 0 0 0 0 0 0 0 0 0 0 0 0 0 0 0 0 0 -0 0 -0 -0 -0 -0 -0 0 0 -0 -0 -0 0 0 0 0 0 0 -0 0 -0 0 0 0 0 0 0 0 0 0 0 0 0 0 0
0 0 0 0 0 0 0 0 0 0 0 0 0 0 0 0 0 0 -0 -0 -0 0 -0 0 0 0 -0 -0 0 0 0 0 -0 -0 -0 -0 -0 -0 -0 -0 -0 0 0 0 0 0 0 0 0 0 0 0 0 0
0 0 0 0 0 0 0 0 0 0 0 0 0 0 -0 -0 -0 -0 0 0 -0 0 -0 -0 -0 -0 -0 0 0 -0 -0 -0 -0 -0 -0 -0 -0 -0 -0 -0 -0 -0 -0 -0 0 0 0 0 0 0 0 0 0 -0
0 0 0 0 0 0 0 0 0 0 0 0 -0 -0 0 0 0 0 0 0 -0 -0 -0 -0 0 0 -0 0 -0 -0 -0 -0 -0 0 0 0 0 0 -0 0 0 0 0 -0 -0 -0 0 0 -0 -0 -0 -0 -0 -0
0 0 0 0 0 0 0 0 0 -0 0 -0 -0 0 0 0 0 0 0 -0 0 -0 0 0 0 0 0 0 0 -0 -0 -0 -0 -0 -0 -0 -0 0 0 0 0 0 0 -0 -0 -0 -0 -0 0 0 0 0 0 0
0 0 0 0 0 0 0 0 0 0 0 0 0 0 0 0 0 0 -0 0 0 0 0 0 0 0 0 0 0 -0 -0 -0 0 0 0 0 0 0 0 0 0 0 0 0 0 0 0 0 0 0 0 -0 -0 -0
0 0 0 0 0 0 0 0 0 0 0 0 0 0 0 0 0 0 0 0 0 0 0 0 0 0 0 0 0 0 0 0 0 0 0 0 0 0 0 0 0 0 0 0 0 0 0 0 0 0 0 0 -0 -0
0 0 0 0 0 0 0 0 0 0 0 0 0 0 0 0 0 0 0 0 0 0 0 0 0 0 0 0 0 0 0 0 0 -0 0 0 -0 -0 0 0 0 0 0 -0 -0 -0 -0 0 -0 -0 -0 -0 0 0
0 0 0 0 0 0 0 0 0 0 0 0 0 0 0 0 0 0 0 0 0 0 0 0 0 0 0 0 0 0 0 0 0 -0 0 0 -0 -0 -0 -0 -0 -0 0 -0 0 0 -0 -0 0 0 0 0 0 0
0 0 0 0 0 0 0 0 0 0 0 0 0 0 0 0 0 0 0 0 0 0 0 0 0 0 0 0 0 0 0 0 -0 -0 -0 0 0 0 0 -0 -0 0 0 0 0 -0 -0 0 0 0 0 0 0 0
0 0 0 0 0 0 0 0 0 0 0 0 0 0 0 0 0 0 0 0 0 0 0 0 0 0 0 0 0 -0 -0 -0 -0 0 0 -0 -0 -0 0 0 0 -0 -0 -0 -0 -0 -0 0 0 0 0 0 0 0
0 0 0 0 0 0 0 0 0 0 0 0 0 0 0 0 0 0 0 0 0 0 0 -0 -0 0 0 -0 -0 -0 -0 -0 -0 0 0 0 0 0 0 0 -0 -0 -0 0 0 0 0 0 0 0 0 0 0 0
0 0 0 0 0 0 0 -0 -0 0 0 0 0 0 0 0 0 0 0 0 0 0 0 -0 -0 -0 -0 0 -0 -0 -0 -0 -0 0 -0 -0 -0 -0 -0 -0 -0 0 0 0 -0 -0 -0 0 0 0 0 0 0 0
0 0 0 0 -0 -0 -0 0 0 0 0 0 0 0 0 0 0 0 0 0 -0 -0 -0 0 -0 -0 -0 -0 0 0 0 -0 -0 -0 0 0 0 -0 -0 -0 -0 0 0 0 0 0 0 0 0 0 0 0 0 0
0 0 0 0 0 0 -0 0 0 0 0 0 0 -0 -0 0 -0 -0 0 -0 0 -0 -0 -0 -0 0 0 0 -0 -0 -0 -0 0 0 0 0 0 0 0 0 0 0 0 0 0 0 0 0 0 0 0 0 0 0
0 0 -0 0 0 -0 -0 -0 -0 -0 -0 -0 -0 0 0 -0 -0 0 0 -0 -0 -0 -0 0 0 0 -0 0 0 0 0 -0 -0 -0 -0 0 0 -0 -0 -0 0 0 0 0 0 0 0 0 0 0 0 0 0 0
Wind_Speed_500mb
21 23 26 26 30 30 24 21 25 25 27 28 26 25 26 24 16 4 2 12 12 13 47 40 20 17 20 15 7 29 22 19 8 4 5 6 7 11 13 11 15 17 12 10 4 10 16 35 13 4 19 32 49 48
25 27 26 29 33 29 24 27 28 29 28 25 24 25 26 25 20 5 11 14 20 21 32 21 37 35 41 23 14 10 3 12 11 7 9 6 7 10 5 3 16 8 6 5 4 2 12 32 33 29 41 53 42 57
26 27 29 29 28 26 24 25 24 25 24 24 26 25 25 26 23 17 14 16 26 20 43 29 35 11 19 15 14 16 4 11 22 28 14 7 6 7 8 5 4 10 18 4 5 10 12 27 34 37 25 41 43 42
32 30 28 24 24 22 24 24 23 22 20 21 24 26 25 26 23 19 13 5 18 15 12 15 9 31 11 18 22 32 24 12 44 28 9 6 4 2 4 4 3 7 6 7 3 11 10 23 34 30 29 24 41 40
27 28 26 22 20 20 21 22 21 22 23 23 23 26 26 25 18 13 12 7 7 2 10 30 27 13 18 22 18 20 25 28 34 13 8 6 19 8 6 3 4 2 2 6 6 20 4 5 17 22 45 38 30 39
28 29 26 21 19 20 22 22 22 22 23 24 26 28 26 16 4 11 3 5 11 8 13 9 20 13 16 20 17 22 28 29 28 9 11 10 19 4 3 3 18 26 22 8 7 10 13 13 11 16 23 17 18 27
28 29 25 21 20 22 23 23 21 22 22 24 24 20 14 5 7 6 3 6 7 5 6 14 13 13 13 15 20 25 24 25 27 28 19 17 10 13 4 3 8 8 11 10 12 13 16 9 14 29 34 28 25 23
24 22 21 20 21 22 23 22 21 20 20 20 12 8 8 5 5 6 10 7 7 4 7 6 8 19 13 15 10 22 28 35 18 20 24 16 13 10 5 16 20 6 9 16 7 11 24 22 29 29 32 34 37 33
22 20 19 19 21 23 23 20 17 16 13 9 1 3 2 1 1 5 8 8 5 7 9 8 6 2 20 16 7 18 12 6 19 10 16 12 7 9 13 30 20 20 17 27 25 15 22 25 24 35 33 36 33 30
24 21 20 18 18 20 22 17 12 4 3 4 3 5 4 3 10 8 6 2 4 7 10 10 16 12 23 23 6 11 8 7 6 9 24 15 16 42 33 39 38 25 24 23 18 24 18 19 40 39 31 27 28 31
25 21 19 17 15 16 17 12 2 2 11 6 4 4 3 9 3 4 6 7 10 8 12 13 18 11 19 9 6 6 6 7 6 8 6 6 14 18 50 49 54 43 31 30 31 25 40 35 49 41 41 31 31 22
26 21 18 15 11 11 13 10 4 9 5 2 3 2 1 6 7 7 6 7 9 3 5 6 10 9 8 6 6 8 5 6 8 10 3 5 8 35 31 43 51 50 53 43 30 27 17 37 39 34 42 45 34 29
25 22 18 13 10 8 9 7 6 7 9 8 3 2 6 6 2 8 6 5 2 3 2 5 5 5 5 6 8 4 6 8 21 5 4 7 34 38 36 43 28 54 52 45 34 27 23 30 42 50 40 34 30 36
24 22 19 11 8 7 4 3 5 0 4 6 8 4 7 7 8 4 6 4 11 23 6 15 16 5 6 4 5 6 7 8 6 5 8 12 37 46 44 44 45 15 57 52 47 47 54 43 40 32 32 43 41 37
25 20 18 13 9 6 1 1 1 5 2 9 9 6 13 24 5 6 9 10 3 15 26 17 13 4 5 6 5 5 7 8 10 7 8 33 38 44 41 40 40 26 5 35 46 42 43 40 35 33 37 44 44 39
23 17 12 11 9 3 2 3 6 1 7 7 7 11 20 12 6 4 8 11 17 19 19 7 8 6 5 8 6 10 6 5 2 6 34 39 44 40 41 39 33 25 13 21 40 46 40 32 33 52 52 53 46 34
27 11 12 12 10 5 3 5 4 9 7 7 11 28 39 7 17 7 4 11 14 16 3 4 3 4 10 7 6 6 7 10 32 43 43 45 50 49 30 20 9 24 42 34 35 35 29 32 35 41 45 42 36 40
21 19 12 17 15 12 3 3 7 7 9 14 18 19 13 19 20 15 15 18 11 10 3 1 3 5 7 6 5 8 34 46 45 45 52 46 42 30 4 31 30 26 27 28 32 36 38 40 44 41 37 43 47 54
17 10 16 20 17 8 6 5 6 8 10 20 22 16 17 22 15 15 16 14 10 10 6 4 6 5 5 6 23 44 49 49 53 60 53 40 21 14 19 22 31 37 42 44 45 48 43 36 38 48 57 58 54 46
21 13 21 22 15 4 2 4 5 9 9 12 21 24 20 11 25 20 17 15 10 3 5 4 5 15 23 45 49 57 64 56 53 44 29 25 23 30 28 27 34 41 43 43 44 40 42 47 47 42 44 45 41 44
17 14 22 21 3 7 7 7 9 9 14 11 17 17 10 17 17 18 19 24 2 8 10 14 40 41 34 43 38 28 21 15 24 40 48 50 39 42 49 54 48 50 54 57 61 58 55 49 42 40 40 47 47 32
15 25 14 7 2 3 7 6 10 11 11 13 15 21 7 9 14 13 20 18 10 17 29 38 29 32 29 18 13 11 28 29 39 46 48 53 60 52 50 54 65 68 63 60 59 57 52 45 38 32 31 26 25 20
19 11 6 3 5 3 8 10 7 9 8 11 17 9 4 9 19 18 10 18 13 36 23 14 12 10 12 24 32 34 42 44 58 63 61 66 64 58 58 58 58 61 54 57 53 46 34 27 36 32 25 26 32 26
10 5 4 4 4 3 6 7 5 5 6 4 3 4 6 12 17 13 6 20 42 44 46 39 34 35 34 39 47 55 56 56 60 58 58 58 59 53 54 54 48 45 48 48 37 38 47 51 47 39 36 32 25 20
4 4 5 5 2 2 4 5 4 3 3 3 1 5 9 13 6 7 9 26 44 50 57 67 73 55 47 41 41 45 42 47 52 54 55 56 52 49 50 46 44 40 38 35 39 37 30 20 14 14 22 22 17 11
3 1 2 2 2 3 3 3 2 3 4 1 5 10 8 8 8 7 14 30 27 26 31 39 57 64 68 61 54 46 43 45 52 53 47 41 41 44 44 36 37 35 27 18 19 26 28 21 18 14 12 19 22 17
2 3 4 5 1 2 4 7 8 7 6 6 6 6 4 7 7 5 9 17 23 34 42 29 40 40 47 52 61 64 62 58 59 58 52 46 42 33 27 32 34 32 31 29 25 22 22 20 17 15 13 10 14 15
2 2 2 5 2 3 4 6 4 8 8 12 10 5 5 7 5 20 15 5 14 27 28 42 36 30 34 42 45 45 44 44 44 43 39 35 29 24 28 29 25 20 19 19 16 15 14 13 11 9 9 9 6 10
2 1 1 4 2 1 15 13 11 14 28 30 19 9 9 17 39 20 11 15 24 15 30 37 39 42 44 39 37 38 36 34 33 34 34 34 30 30 26 24 21 18 13 13 6 7 6 9 13 18 10 7 9 14
6 4 4 15 8 8 17 29 34 30 35 39 36 34 24 14 13 10 13 22 34 44 40 40 39 38 39 40 42 43 42 38 34 34 36 36 34 29 27 25 22 16 15 17 22 26 19 11 7 10 8 12 17 24
16 36 41 39 36 34 35 38 35 32 34 30 32 31 22 19 28 36 35 35 35 32 35 37 37 38 41 40 38 39 38 30 31 33 30 29 27 22 19 20 19 17 15 12 9 11 12 14 15 13 14 16 15 11
18 26 22 16 16 21 33 32 28 28 32 41 32 31 38 38 40 42 33 33 33 36 33 35 38 37 33 26 22 37 35 19 16 20 19 18 16 27 35 20 17 16 13 18 26 23 18 20 18 17 17 17 17 18
26 27 33 22 14 14 24 19 19 24 28 28 23 31 30 25 17 17 22 25 29 31 27 26 25 22 20 14 10 12 20 31 34 34 35 18 7 5 15 12 11 13 13 19 18 17 17 17 19 21 23 26 28 30
Wind_Direction_500mb
313 315 317 318 327 328 332 339 334 331 332 338 336 339 342 344 339 355 230 319 13 281 276 281 298 306 322 348 351 329 320 7 300 219 198 252 267 251 245 246 240 194 210 222 222 195 256 357 358 99 128 97 126 140
309 313 309 306 317 319 321 322 321 324 328 331 332 335 337 338 341 353 123 271 282 265 258 261 272 263 262 250 277 339 165 338 312 324 0 316 300 1 9 279 345 59 79 341 75 113 354 22 58 66 124 121 128 143
311 314 312 305 308 316 321 325 326 326 327 324 324 328 330 333 330 321 300 353 330 282 301 272 246 289 230 218 222 258 31 16 336 325 298 311 47 8 8 28 56 331 17 22 342 26 48 15 38 33 97 121 128 132
301 305 312 308 314 317 323 325 330 333 331 325 325 325 323 325 318 313 308 201 308 297 281 332 312 212 240 210 225 233 242 279 262 285 301 304 311 197 3 160 55 353 16 345 321 28 79 25 37 41 49 89 114 128
298 300 304 302 310 317 327 332 335 333 330 326 323 320 320 324 315 329 31 58 340 139 309 295 310 261 225 222 211 225 232 225 254 249 288 279 331 356 352 357 108 92 350 17 33 346 93 24 49 78 61 62 102 126
284 293 298 296 301 311 317 323 329 332 328 324 321 318 318 324 344 87 31 16 358 334 320 299 306 267 221 238 235 231 229 223 234 261 263 236 162 160 282 314 84 99 89 98 97 31 94 125 152 128 119 134 120 121
281 284 286 285 293 307 313 317 323 325 322 324 322 321 325 331 192 132 181 223 219 220 284 299 284 316 257 222 228 217 230 234 232 248 253 245 226 165 171 227 273 187 179 157 155 133 115 135 147 142 160 161 159 144
279 274 277 281 289 304 311 315 316 316 319 323 324 354 15 82 83 36 335 319 252 288 249 277 277 327 315 272 264 195 197 204 222 244 248 247 217 176 229 225 241 138 142 170 222 208 175 165 149 151 152 150 143 146
276 267 267 276 291 304 313 316 313 312 315 317 213 98 47 227 1 273 287 320 274 235 301 271 299 277 311 356 339 341 325 226 214 192 225 245 214 198 183 246 261 269 267 260 209 230 211 214 188 165 167 147 152 156
270 265 264 275 289 306 318 321 318 310 59 29 116 8 291 26 345 313 341 229 237 210 228 262 275 295 345 349 38 349 298 272 287 246 229 218 237 244 226 221 231 237 257 242 215 219 198 176 176 165 160 160 168 154
257 256 259 271 288 308 326 332 0 89 52 24 317 175 355 356 332 254 246 225 210 222 215 246 275 327 337 343 333 315 307 297 270 249 249 246 237 224 246 245 239 232 233 226 241 256 225 200 184 183 169 179 196 177
241 243 248 262 278 304 329 342 315 258 274 30 284 42 158 233 250 254 232 216 222 254 184 252 258 274 313 336 313 312 274 291 268 291 260 256 279 241 252 249 238 227 223 225 249 257 200 193 186 186 174 184 187 168
229 234 234 248 268 292 323 345 337 331 142 81 68 297 264 219 341 241 230 224 191 295 88 345 318 288 299 228 259 265 257 242 325 266 262 51 356 355 359 8 321 233 217 220 225 235 260 177 179 182 174 183 168 165
220 225 226 224 249 272 318 349 336 139 188 225 189 289 218 215 240 285 19 215 328 340 20 360 328 204 252 248 240 249 259 306 267 245 45 9 347 345 337 351 357 314 214 208 204 210 240 175 176 183 185 169 170 169
212 215 219 201 217 245 333 97 304 263 262 257 227 223 219 241 293 338 14 331 333 334 353 337 322 324 257 262 219 298 257 232 19 26 295 333 337 342 335 337 339 343 246 219 222 189 175 176 171 156 157 161 170 174
195 209 206 191 205 217 113 189 186 36 278 271 270 272 266 223 180 51 19 4 347 336 330 18 31 350 293 313 272 224 251 65 270 268 314 330 329 318 331 328 328 248 8 145 147 163 175 179 173 156 160 165 174 182
183 180 216 183 183 141 126 144 181 226 271 254 257 283 257 311 66 53 27 354 345 340 32 37 335 261 314 254 253 22 25 321 322 316 314 315 312 315 316 308 161 161 175 160 153 166 156 144 148 156 154 160 175 174
173 207 184 171 153 122 64 330 276 218 247 257 266 299 339 31 64 45 11 359 350 353 2 105 301 229 237 257 310 350 316 312 313 311 313 312 308 313 162 126 117 124 125 126 124 125 133 143 150 150 155 158 151 151
162 199 178 166 164 154 205 231 270 286 260 283 291 319 338 75 43 357 329 332 330 296 293 226 249 236 273 340 316 310 309 305 302 303 310 318 290 179 150 124 125 127 128 128 133 136 137 138 142 148 145 146 143 142
165 170 164 157 146 95 274 265 239 264 278 320 0 14 23 17 342 346 358 5 313 239 204 228 257 342 316 312 309 303 301 303 300 295 314 101 129 145 138 130 128 126 123 126 125 122 118 122 128 136 140 131 131 142
126 154 149 145 92 0 302 293 240 312 338 349 33 21 349 357 356 351 352 350 310 19 337 318 319 316 309 308 313 321 337 55 89 109 107 102 107 114 117 117 117 112 110 110 114 119 118 118 128 138 145 143 139 139
130 119 120 78 27 252 269 267 290 336 319 4 10 356 350 337 340 348 353 10 26 343 327 317 324 313 316 340 28 66 96 105 114 109 109 112 106 107 105 109 111 109 107 110 115 117 120 124 119 113 121 121 128 143
128 110 125 196 231 280 274 331 10 11 355 356 340 334 343 348 6 13 55 356 309 345 352 343 1 37 63 81 93 107 113 109 107 110 110 112 111 111 113 115 119 116 105 108 111 105 98 104 117 116 120 112 112 115
27 336 318 281 196 309 337 14 36 5 340 332 295 25 11 27 12 42 6 325 343 29 44 51 59 70 90 91 93 100 112 117 117 119 120 115 108 104 116 121 117 112 113 120 118 109 103 108 103 92 92 101 109 110
264 353 315 325 326 340 351 4 347 339 287 253 136 76 47 35 33 32 358 336 15 47 52 53 58 73 77 85 98 108 112 115 119 119 116 115 105 104 107 107 115 121 128 118 104 100 92 97 102 88 107 111 109 98
59 49 12 48 307 49 339 304 307 293 279 124 72 80 61 41 40 18 327 338 9 19 33 59 68 63 65 73 84 99 103 107 108 111 119 120 114 100 100 105 116 114 116 107 115 105 106 107 94 85 76 56 56 63
343 32 17 315 278 244 278 258 254 260 259 93 78 83 73 60 47 334 350 76 52 40 37 68 88 80 80 81 81 85 91 92 91 96 96 93 87 79 88 97 98 96 93 88 87 97 89 85 78 71 64 44 32 35
195 262 264 320 299 210 264 261 276 6 33 106 95 87 105 133 155 178 144 95 28 52 61 71 75 86 93 94 92 90 91 89 87 87 86 83 90 91 101 100 92 96 101 108 99 93 86 78 69 54 44 46 12 344
322 330 170 303 257 222 15 29 41 33 76 98 113 104 114 129 149 148 75 28 2 84 108 95 81 77 78 89 94 96 97 100 103 99 98 99 95 86 82 83 76 93 131 139 139 154 125 88 78 67 98 63 10 16
41 51 43 61 53 46 79 111 110 95 87 93 99 107 115 143 141 112 78 58 54 68 89 96 90 85 80 76 74 73 73 80 87 90 92 91 91 92 90 87 85 79 64 72 65 59 60 37 21 27 14 349 335 346
93 103 107 112 112 113 112 115 113 106 101 96 90 87 79 79 87 75 79 82 92 91 87 84 78 78 80 82 86 84 80 79 84 86 89 91 90 88 85 84 75 75 67 61 18 338 337 15 47 36 10 12 21 359
110 110 109 110 100 102 121 121 111 105 95 94 87 97 86 74 63 55 76 93 83 74 73 75 76 92 85 78 81 72 78 92 122 102 107 117 98 79 67 93 89 67 47 45 27 7 354 1 6 10 358 347 339 328
98 102 94 87 95 133 123 103 109 106 108 119 118 99 93 83 65 78 80 71 70 74 79 78 74 73 75 65 72 99 92 86 73 74 67 74 134 54 34 56 64 59 39 21 356 349 348 352 346 340 347 348 342 336
Wind_Speed_850mb
21 23 26 26 30 30 24 21 25 25 27 28 26 25 26 24 16 4 2 12 12 13 47 40 20 17 20 15 7 29 22 19 8 4 5 6 7 11 13 11 15 17 12 10 4 10 16 35 13 4 19 32 49 48
25 27 26 29 33 29 24 27 28 29 28 25 24 25 26 25 20 5 11 14 20 21 32 21 37 35 41 23 14 10 3 12 11 7 9 6 7 10 5 3 16 8 6 5 4 2 12 32 33 29 41 53 42 57
26 27 29 29 28 26 24 25 24 25 24 24 26 25 25 26 23 17 14 16 26 20 43 29 35 11 19 15 14 16 4 11 22 28 14 7 6 7 8 5 4 10 18 4 5 10 12 27 34 37 25 41 43 42
32 30 28 24 24 22 24 24 23 22 20 21 24 26 25 26 23 19 13 5 18 15 12 15 9 31 11 18 22 32 24 12 44 28 9 6 4 2 4 4 3 7 6 7 3 11 10 23 34 30 29 24 41 40
27 28 26 22 20 20 21 22 21 22 23 23 23 26 26 25 18 13 12 7 7 2 10 30 27 13 18 22 18 20 25 28 34 13 8 6 19 8 6 3 4 2 2 6 6 20 4 5 17 22 45 38 30 39
28 29 26 21 19 20 22 22 22 22 23 24 26 28 26 16 4 11 3 5 11 8 13 9 20 13 16 20 17 22 28 29 28 9 11 10 19 4 3 3 18 26 22 8 7 10 13 13 11 16 23 17 18 27
28 29 25 21 20 22 23 23 21 22 22 24 24 20 14 5 7 6 3 6 7 5 6 14 13 13 13 15 20 25 24 25 27 28 19 17 10 13 4 3 8 8 11 10 12 13 16 9 14 29 34 28 25 23
24 22 21 20 21 22 23 22 21 20 20 20 12 8 8 5 5 6 10 7 7 4 7 6 8 19 13 15 10 22 28 35 18 20 24 16 13 10 5 16 20 6 9 16 7 11 24 22 29 29 32 34 37 33
22 20 19 19 21 23 23 20 17 16 13 9 1 3 2 1 1 5 8 8 5 7 9 8 6 2 20 16 7 18 12 6 19 10 16 12 7 9 13 30 20 20 17 27 25 15 22 25 24 35 33 36 33 30
24 21 20 18 18 20 22 17 12 4 3 4 3 5 4 3 10 8 6 2 4 7 10 10 16 12 23 23 6 11 8 7 6 9 24 15 16 42 33 39 38 25 24 23 18 24 18 19 40 39 31 27 28 31
25 21 19 17 15 16 17 12 2 2 11 6 4 4 3 9 3 4 6 7 10 8 12 13 18 11 19 9 6 6 6 7 6 8 6 6 14 18 50 49 54 43 31 30 31 25 40 35 49 41 41 31 31 22
26 21 18 15 11 11 13 10 4 9 5 2 3 2 1 6 7 7 6 7 9 3 5 6 10 9 8 6 6 8 5 6 8 10 3 5 8 35 31 43 51 50 53 43 30 27 17 37 39 34 42 45 34 29
25 22 18 13 10 8 9 7 6 7 9 8 3 2 6 6 2 8 6 5 2 3 2 5 5 5 5 6 8 4 6 8 21 5 4 7 34 38 36 43 28 54 52 45 34 27 23 30 42 50 40 34 30 36
24 22 19 11 8 7 4 3 5 0 4 6 8 4 7 7 8 4 6 4 11 23 6 15 16 5 6 4 5 6 7 8 6 5 8 12 37 46 44 44 45 15 57 52 47 47 54 43 40 32 32 43 41 37
25 20 18 13 9 6 1 1 1 5 2 9 9 6 13 24 5 6 9 10 3 15 26 17 13 4 5 6 5 5 7 8 10 7 8 33 38 44 41 40 40 26 5 35 46 42 43 40 35 33 37 44 44 39
23 17 12 11 9 3 2 3 6 1 7 7 7 11 20 12 6 4 8 11 17 19 19 7 8 6 5 8 6 10 6 5 2 6 34 39 44 40 41 39 33 25 13 21 40 46 40 32 33 52 52 53 46 34
27 11 12 12 10 5 3 5 4 9 7 7 11 28 39 7 17 7 4 11 14 16 3 4 3 4 10 7 6 6 7 10 32 43 43 45 50 49 30 20 9 24 42 34 35 35 29 32 35 41 45 42 36 40
21 19 12 17 15 12 3 3 7 7 9 14 18 19 13 19 20 15 15 18 11 10 3 1 3 5 7 6 5 8 34 46 45 45 52 46 42 30 4 31 30 26 27 28 32 36 38 40 44 41 37 43 47 54
17 10 16 20 17 8 6 5 6 8 10 20 22 16 17 22 15 15 16 14 10 10 6 4 6 5 5 6 23 44 49 49 53 60 53 40 21 14 19 22 31 37 42 44 45 48 43 36 38 48 57 58 54 46
21 13 21 22 15 4 2 4 5 9 9 12 21 24 20 11 25 20 17 15 10 3 5 4 5 15 23 45 49 57 64 56 53 44 29 25 23 30 28 27 34 41 43 43 44 40 42 47 47 42 44 45 41 44
17 14 22 21 3 7 7 7 9 9 14 11 17 17 10 17 17 18 19 24 2 8 10 14 40 41 34 43 38 28 21 15 24 40 48 50 39 42 49 54 48 50 54 57 61 58 55 49 42 40 40 47 47 32
15 25 14 7 2 3 7 6 10 11 11 13 15 21 7 9 14 13 20 18 10 17 29 38 29 32 29 18 13 11 28 29 39 46 48 53 60 52 50 54 65 68 63 60 59 57 52 45 38 32 31 26 25 20
19 11 6 3 5 3 8 10 7 9 8 11 17 9 4 9 19 18 10 18 13 36 23 14 12 10 12 24 32 34 42 44 58 63 61 66 64 58 58 58 58 61 54 57 53 46 34 27 36 32 25 26 32 26
10 5 4 4 4 3 6 7 5 5 6 4 3 4 6 12 17 13 6 20 42 44 46 39 34 35 34 39 47 55 56 56 60 58 58 58 59 53 54 54 48 45 48 48 37 38 47 51 47 39 36 32 25 20
4 4 5 5 2 2 4 5 4 3 3 3 1 5 9 13 6 7 9 26 44 50 57 67 73 55 47 41 41 45 42 47 52 54 55 56 52 49 50 46 44 40 38 35 39 37 30 20 14 14 22 22 17 11
3 1 2 2 2 3 3 3 2 3 4 1 5 10 8 8 8 7 14 30 27 26 31 39 57 64 68 61 54 46 43 45 52 53 47 41 41 44 44 36 37 35 27 18 19 26 28 21 18 14 12 19 22 17
2 3 4 5 1 2 4 7 8 7 6 6 6 6 4 7 7 5 9 17 23 34 42 29 40 40 47 52 61 64 62 58 59 58 52 46 42 33 27 32 34 32 31 29 25 22 22 20 17 15 13 10 14 15
2 2 2 5 2 3 4 6 4 8 8 12 10 5 5 7 5 20 15 5 14 27 28 42 36 30 34 42 45 45 44 44 44 43 39 35 29 24 28 29 25 20 19 19 16 15 14 13 11 9 9 9 6 10
2 1 1 4 2 1 15 13 11 14 28 30 19 9 9 17 39 20 11 15 24 15 30 37 39 42 44 39 37 38 36 34 33 34 34 34 30 30 26 24 21 18 13 13 6 7 6 9 13 18 10 7 9 14
6 4 4 15 8 8 17 29 34 30 35 39 36 34 24 14 13 10 13 22 34 44 40 40 39 38 39 40 42 43 42 38 34 34 36 36 34 29 27 25 22 16 15 17 22 26 19 11 7 10 8 12 17 24
16 36 41 39 36 34 35 38 35 32 34 30 32 31 22 19 28 36 35 35 35 32 35 37 37 38 41 40 38 39 38 30 31 33 30 29 27 22 19 20 19 17 15 12 9 11 12 14 15 13 14 16 15 11
18 26 22 16 16 21 33 32 28 28 32 41 32 31 38 38 40 42 33 33 33 36 33 35 38 37 33 26 22 37 35 19 16 20 19 18 16 27 35 20 17 16 13 18 26 23 18 20 18 17 17 17 17 18
26 27 33 22 14 14 24 19 19 24 28 28 23 31 30 25 17 17 22 25 29 31 27 26 25 22 20 14 10 12 20 31 34 34 35 18 7 5 15 12 11 13 13 19 18 17 17 17 19 21 23 26 28 30
Wind_Direction_850mb
313 315 317 318 327 328 332 339 334 331 332 338 336 339 342 344 339 355 230 319 13 281 276 281 298 306 322 348 351 329 320 7 300 219 198 252 267 251 245 246 240 194 210 222 222 195 256 357 358 99 128 97 126 140
309 313 309 306 317 319 321 322 321 324 328 331 332 335 337 338 341 353 123 271 282 265 258 261 272 263 262 250 277 339 165 338 312 324 0 316 300 1 9 279 345 59 79 341 75 113 354 22 58 66 124 121 128 143
311 314 312 305 308 316 321 325 326 326 327 324 324 328 330 333 330 321 300 353 330 282 301 272 246 289 230 218 222 258 31 16 336 325 298 311 47 8 8 28 56 331 17 22 342 26 48 15 38 33 97 121 128 132
301 305 312 308 314 317 323 325 330 333 331 325 325 325 323 325 318 313 308 201 308 297 281 332 312 212 240 210 225 233 242 279 262 285 301 304 311 197 3 160 55 353 16 345 321 28 79 25 37 41 49 89 114 128
298 300 304 302 310 317 327 332 335 333 330 326 323 320 320 324 315 329 31 58 340 139 309 295 310 261 225 222 211 225 232 225 254 249 288 279 331 356 352 357 108 92 350 17 33 346 93 24 49 78 61 62 102 126
284 293 298 296 301 311 317 323 329 332 328 324 321 318 318 324 344 87 31 16 358 334 320 299 306 267 221 238 235 231 229 223 234 261 263 236 162 160 282 314 84 99 89 98 97 31 94 125 152 128 119 134 120 121
281 284 286 285 293 307 313 317 323 325 322 324 322 321 325 331 192 132 181 223 219 220 284 299 284 316 257 222 228 217 230 234 232 248 253 245 226 165 171 227 273 187 179 157 155 133 115 135 147 142 160 161 159 144
279 274 277 281 289 304 311 315 316 316 319 323 324 354 15 82 83 36 335 319 252 288 249 277 277 327 315 272 264 195 197 204 222 244 248 247 217 176 229 225 241 138 142 170 222 208 175 165 149 151 152 150 143 146
276 267 267 276 291 304 313 316 313 312 315 317 213 98 47 227 1 273 287 320 274 235 301 271 299 277 311 356 339 341 325 226 214 192 225 245 214 198 183 246 261 269 267 260 209 230 211 214 188 165 167 147 152 156
270 265 264 275 289 306 318 321 318 310 59 29 116 8 291 26 345 313 341 229 237 210 228 262 275 295 345 349 38 349 298 272 287 246 229 218 237 244 226 221 231 237 257 242 215 219 198 176 176 165 160 160 168 154
257 256 259 271 288 308 326 332 0 89 52 24 317 175 355 356 332 254 246 225 210 222 215 246 275 327 337 343 333 315 307 297 270 249 249 246 237 224 246 245 239 232 233 226 241 256 225 200 184 183 169 179 196 177
241 243 248 262 278 304 329 342 315 258 274 30 284 42 158 233 250 254 232 216 222 254 184 252 258 274 313 336 313 312 274 291 268 291 260 256 279 241 252 249 238 227 223 225 249 257 200 193 186 186 174 184 187 168
229 234 234 248 268 292 323 345 337 331 142 81 68 297 264 219 341 241 230 224 191 295 88 345 318 288 299 228 259 265 257 242 325 266 262 51 356 355 359 8 321 233 217 220 225 235 260 177 179 182 174 183 168 165
220 225 226 224 249 272 318 349 336 139 188 225 189 289 218 215 240 285 19 215 328 340 20 360 328 204 252 248 240 249 259 306 267 245 45 9 347 345 337 351 357 314 214 208 204 210 240 175 176 183 185 169 170 169
212 215 219 201 217 245 333 97 304 263 262 257 227 223 219 241 293 338 14 331 333 334 353 337 322 324 257 262 219 298 257 232 19 26 295 333 337 342 335 337 339 343 246 219 222 189 175 176 171 156 157 161 170 174
195 209 206 191 205 217 113 189 186 36 278 271 270 272 266 223 180 51 19 4 347 336 330 18 31 350 293 313 272 224 251 65 270 268 314 330 329 318 331 328 328 248 8 145 147 163 175 179 173 156 160 165 174 182
183 180 216 183 183 141 126 144 181 226 271 254 257 283 257 311 66 53 27 354 345 340 32 37 335 261 314 254 253 22 25 321 322 316 314 315 312 315 316 308 161 161 175 160 153 166 156 144 148 156 154 160 175 174
173 207 184 171 153 122 64 330 276 218 247 257 266 299 339 31 64 45 11 359 350 353 2 105 301 229 237 257 310 350 316 312 313 311 313 312 308 313 162 126 117 124 125 126 124 125 133 143 150 150 155 158 151 151
162 199 178 166 164 154 205 231 270 286 260 283 291 319 338 75 43 357 329 332 330 296 293 226 249 236 273 340 316 310 309 305 302 303 310 318 290 179 150 124 125 127 128 128 133 136 137 138 142 148 145 146 143 142
165 170 164 157 146 95 274 265 239 264 278 320 0 14 23 17 342 346 358 5 313 239 204 228 257 342 316 312 309 303 301 303 300 295 314 101 129 145 138 130 128 126 123 126 125 122 118 122 128 136 140 131 131 142
126 154 149 145 92 0 302 293 240 312 338 349 33 21 349 357 356 351 352 350 310 19 337 318 319 316 309 308 313 321 337 55 89 109 107 102 107 114 117 117 117 112 110 110 114 119 118 118 128 138 145 143 139 139
130 119 120 78 27 252 269 267 290 336 319 4 10 356 350 337 340 348 353 10 26 343 327 317 324 313 316 340 28 66 96 105 114 109 109 112 106 107 105 109 111 109 107 110 115 117 120 124 119 113 121 121 128 143
128 110 125 196 231 280 274 331 10 11 355 356 340 334 343 348 6 13 55 356 309 345 352 343 1 37 63 81 93 107 113 109 107 110 110 112 111 111 113 115 119 116 105 108 111 105 98 104 117 116 120 112 112 115
27 336 318 281 196 309 337 14 36 5 340 332 295 25 11 27 12 42 6 325 343 29 44 51 59 70 90 91 93 100 112 117 117 119 120 115 108 104 116 121 117 112 113 120 118 109 103 108 103 92 92 101 109 110
264 353 315 325 326 340 351 4 347 339 287 253 136 76 47 35 33 32 358 336 15 47 52 53 58 73 77 85 98 108 112 115 119 119 116 115 105 104 107 107 115 121 128 118 104 100 92 97 102 88 107 111 109 98
59 49 12 48 307 49 339 304 307 293 279 124 72 80 61 41 40 18 327 338 9 19 33 59 68 63 65 73 84 99 103 107 108 111 119 120 114 100 100 105 116 114 116 107 115 105 106 107 94 85 76 56 56 63
343 32 17 315 278 244 278 258 254 260 259 93 78 83 73 60 47 334 350 76 52 40 37 68 88 80 80 81 81 85 91 92 91 96 96 93 87 79 88 97 98 96 93 88 87 97 89 85 78 71 64 44 32 35
195 262 264 320 299 210 264 261 276 6 33 106 95 87 105 133 155 178 144 95 28 52 61 71 75 86 93 94 92 90 91 89 87 87 86 83 90 91 101 100 92 96 101 108 99 93 86 78 69 54 44 46 12 344
322 330 170 303 257 222 15 29 41 33 76 98 113 104 114 129 149 148 75 28 2 84 108 95 81 77 78 89 94 96 97 100 103 99 98 99 95 86 82 83 76 93 131 139 139 154 125 88 78 67 98 63 10 16
41 51 43 61 53 46 79 111 110 95 87 93 99 107 115 143 141 112 78 58 54 68 89 96 90 85 80 76 74 73 73 80 87 90 92 91 91 92 90 87 85 79 64 72 65 59 60 37 21 27 14 349 335 346
93 103 107 112 112 113 112 115 113 106 101 96 90 87 79 79 87 75 79 82 92 91 87 84 78 78 80 82 86 84 80 79 84 86 89 91 90 88 85 84 75 75 67 61 18 338 337 15 47 36 10 12 21 359
110 110 109 110 100 102 121 121 111 105 95 94 87 97 86 74 63 55 76 93 83 74 73 75 76 92 85 78 81 72 78 92 122 102 107 117 98 79 67 93 89 67 47 45 27 7 354 1 6 10 358 347 339 328
98 102 94 87 95 133 123 103 109 106 108 119 118 99 93 83 65 78 80 71 70 74 79 78 74 73 75 65 72 99 92 86 73 74 67 74 134 54 34 56 64 59 39 21 356 349 348 352 346 340 347 348 342 336